Terug naar catalogus

METEOR 3-3

ActiefWeerPO
NORAD 20305·PAYLOAD·🇷🇺 Russia

Gelanceerd Oct 24, 1989 vanaf Plesetsk Cosmodrome

Loading…

Volgende Passages (komende 24 uur)

TLE

VersSource: Space-Track

Epoch: Sep 14, 2026, 08:43 UTC

1 20305U 89086A   26257.36334194 -.00000736  00000-0 -23265-2 0  9994
2 20305  82.5508  45.2889 0006047 312.6834  73.7078 13.04704566758244

Volg METEOR 3-3 in realtime met AllMySat

Download on the App Store